Regional Weather Roundup
Issued by NWS

Home | Current Version | Previous Version | Text Only | Print | Product List | Glossary Off
Versions: 1 2 3 4 5 6 7 8 9 10 11 12 13 14 15 16 17 18 19 20 21 22 23 24 25 26 27 28 29 30 31 32 33 34 35 36 37 38 39 40 41 42 43 44 45 46 47 48 49 50

381
ASUS43 KOAX 180002
RWRNE

WEATHER ROUNDUP FOR NEBRASKA
NATIONAL WEATHER SERVICE OMAHA NE
600 PM CST WED JAN 17 2018

NOTES: SATELLITE DATA IS BEING USED TO AUGMENT CLOUD COVER ABOVE
       12000 FEET.
       "FAIR" INDICATES FEW OR NO CLOUDS BELOW 12,000 FEET WITH NO
       SIGNIFICANT WEATHER AND/OR OBSTRUCTIONS TO VISIBILITY.


NEZ001>004-019>022-054>056-180100-
NEBRASKA PANHANDLE

CITY           SKY/WX    TMP DP  RH WIND       PRES   REMARKS
SCOTTSBLUFF    CLEAR     36  21  54 SW5       30.26S WCI  32
6HR MIN TEMP:  25; 6HR MAX TEMP:  46;

ALLIANCE       CLEAR     28  23  81 W5        30.24S WCI  23
6HR MIN TEMP:  28; 6HR MAX TEMP:  39;

CHADRON        CLEAR     35  24  64 SW5       30.22F WCI  31
6HR MIN TEMP:  34; 6HR MAX TEMP:  47;

GORDON         FAIR      33  21  63 W6        30.22F WCI  27
6HR MIN TEMP:  33; 6HR MAX TEMP:  43;

KIMBALL        CLEAR     37  25  62 NW9       30.25S WCI  30
SIDNEY         CLEAR     32  20  61 N12       30.26S WCI  23
6HR MIN TEMP:  32; 6HR MAX TEMP:  45;

$$

NEZ057>060-069>072-079>082-180100-
SOUTHWEST NEBRASKA

CITY           SKY/WX    TMP DP  RH WIND       PRES   REMARKS
NORTH PLATTE   CLEAR     32  18  56 SW3       30.26S
6HR MIN TEMP:  25; 6HR MAX TEMP:  39;

IMPERIAL       CLEAR     32  18  56 N7        30.25S WCI  26
6HR MIN TEMP:  30; 6HR MAX TEMP:  45;

LEXINGTON      CLEAR     32  17  53 SW7       30.28S WCI  25
MCCOOK         CLEAR     35  21  56 SE5       30.28S WCI  31
6HR MIN TEMP:  25; 6HR MAX TEMP:  40;

OGALLALA       CLEAR     35  24  64 NW9       30.26R WCI  27
$$

NEZ005>010-023>029-035>040-094-180100-
NORTH CENTRAL NEBRASKA

CITY           SKY/WX    TMP DP  RH WIND       PRES   REMARKS
VALENTINE      CLEAR     31  25  78 SW9       30.21F WCI  23
6HR MIN TEMP:  31; 6HR MAX TEMP:  43;

AINSWORTH      CLEAR     33  24  70 W5        30.22S WCI  29
BROKEN BOW     CLEAR     30  17  58 CALM      30.25S
6HR MIN TEMP:  24; 6HR MAX TEMP:  36;

O`NEILL        CLEAR     30  20  66 SW7       30.23S WCI  23
ORD            CLEAR     30  17  58 CALM      30.25S
6HR MIN TEMP:  26; 6HR MAX TEMP:  37;

THEDFORD       CLEAR     34  23  64 W6        30.24F WCI  29
$$

NEZ041-046>049-061>064-073>077-083>087-180100-
SOUTH CENTRAL NEBRASKA

CITY           SKY/WX    TMP DP  RH WIND       PRES   REMARKS
GRAND ISLAND   CLOUDY    26  16  65 S9        30.30F WCI  17
6HR MIN TEMP:  24; 6HR MAX TEMP:  32;

AURORA         CLEAR     25  15  65 S8        30.30F WCI  16
HASTINGS       CLEAR     29  13  51 SW8       30.31F WCI  21
6HR MIN TEMP:  21; 6HR MAX TEMP:  31;

HEBRON         CLEAR     24  15  69 S5        30.37S WCI  18
HOLDREGE       CLEAR     30  17  59 S7        30.30S WCI  23
KEARNEY        CLOUDY    26  16  65 SW10      30.30F WCI  16
YORK           CLEAR     25  16  68 S8        30.33F WCI  16
$$

NEZ011>018-030>034-042>045-180100-
NORTHEAST NEBRASKA

CITY           SKY/WX    TMP DP  RH WIND       PRES   REMARKS
NORFOLK        CLEAR     26  17  68 SW13      30.24F WCI  15
6HR MIN TEMP:  22; 6HR MAX TEMP:  30;

ALBION         CLEAR     26  18  71 S7        30.27S WCI  18
BLAIR          CLOUDY    26  14  59 S16       30.32F WCI  14
COLUMBUS       CLEAR     28  17  63 S10       30.31F WCI  19
FREMONT        CLEAR     27  14  57 S10G17    30.33F WCI  17
TEKAMAH        CLEAR     26  14  60 S15       30.32F WCI  14
6HR MIN TEMP:  24; 6HR MAX TEMP:  33;

WAYNE          CLEAR     27  17  67 S12       30.25F WCI  16
$$

NEZ050>053-065>068-078-088>093-180100-
SOUTHEAST NEBRASKA

CITY           SKY/WX    TMP DP  RH WIND       PRES   REMARKS
LINCOLN        CLOUDY    24  12  60 S12       30.38F WCI  13
6HR MIN TEMP:  23; 6HR MAX TEMP:  30;

OMAHA EPPLEY   CLOUDY    24  11  57 S14       30.36F WCI  12
6HR MIN TEMP:  22; 6HR MAX TEMP:  30;

BEATRICE       CLOUDY    22  12  65 S9        30.39S WCI  12
FALLS CITY     CLOUDY    24  11  57 S7        30.43F WCI  16
6HR MIN TEMP:  21; 6HR MAX TEMP:  28;

NEBRASKA CITY  CLOUDY    21  12  68 SW10      30.40S WCI  10
PLATTSMOUTH    CLOUDY    21  10  63 S13       30.38S WCI   9
$$

NEZ044-045-051>053-067-180100-
OMAHA AREA

CITY           SKY/WX    TMP DP  RH WIND       PRES   REMARKS
OMAHA EPPLEY   CLOUDY    24  11  57 S14       30.36F WCI  12
6HR MIN TEMP:  22; 6HR MAX TEMP:  30;

BLAIR          CLOUDY    26  14  59 S16       30.32F WCI  14
FREMONT        CLEAR     27  14  57 S10G17    30.33F WCI  17
MILLARD        CLOUDY    25  14  62 S8        30.37F WCI  16
OFFUTT AFB     CLEAR     20  10  63 S9        30.38F WCI  10
PLATTSMOUTH    CLOUDY    21  10  63 S13       30.38S WCI   9
WAHOO          FAIR      26  13  58 S9        30.35S WCI  17
$$




USA.gov is the U.S. government's official web portal to all federal, state and local government web resources and services.